Regional Weather Roundup
Issued by NWS

Home | Current Version | Previous Version | Text Only | Print | Product List | Glossary Off
Versions: 1 2 3 4 5 6 7 8 9 10 11 12 13 14 15 16 17 18 19 20 21 22 23 24 25 26 27 28 29 30 31 32 33 34 35 36 37 38 39 40 41 42 43 44 45 46 47 48 49 50

000
ASUS43 KLOT 252204
RWRIL

ILLINOIS REGIONAL WEATHER ROUNDUP
NATIONAL WEATHER SERVICE CHICAGO/ROMEOVILLE IL
400 PM CST SUN FEB 25 2018

NOTE: "FAIR" INDICATES FEW OR NO CLOUDS BELOW 12,000 FEET WITH NO
SIGNIFICANT WEATHER AND/OR OBSTRUCTIONS TO VISIBILITY.

* THESE STATIONS ARE NOT UNDER NWS QUALITY CONTROL. THEY ALSO MAY NOT
  REPORT WEATHER SUCH AS PRECIPITATION OR FOG.

ILZ001-002-007-009-015-016-024-252300-
NORTHWEST ILLINOIS

CITY           SKY/WX    TMP DP  RH WIND       PRES   REMARKS
MOLINE         FAIR      48  23  37 W17G30    29.99R
STERLING*      FAIR      45  24  43 W21G26    29.98R
SAVANNA*       FAIR      43  24  46 W15G26    29.98R
$$

ILZ003-004-008-010-011-017-018-252300-
NORTH CENTRAL ILLINOIS

CITY           SKY/WX    TMP DP  RH WIND       PRES   REMARKS
ROCKFORD       FAIR      42  23  46 W21G32    29.96R
FREEPORT*      FAIR      41  26  55 W15G25    29.96R
ROCHELLE*      FAIR      42  29  60 W23G31    29.98R
DE KALB*       FAIR      43  26  50 W23G32    29.97R
PERU*          FAIR      44  22  41 W26       30.01R
$$

ILZ005-006-012>014-019>023-252300-
NORTHEAST ILLINOIS

CITY           SKY/WX    TMP DP  RH WIND       PRES   REMARKS
CHICAGO-OHARE  FAIR      44  24  45 W25G39    29.96R
CHICAGO-MIDWAY FAIR      45  23  42 W23G31    29.98R
AURORA         FAIR      44  27  51 SW17      29.98R
LANSING*       FAIR      44  28  53 SW17G26   30.00R
JOLIET*        FAIR      46  25  44 SW16G23   30.00R
WAUKEGAN       FAIR      43  22  43 W18G35    29.92R
DUPAGE AIRPORT FAIR      44  24  45 W23G31    29.97R
KANKAKEE*      FAIR      45  26  49 W21G26    30.04R
WHEELING       FAIR      45  23  42 SW15G28   29.96R
MORRIS*        FAIR      45  25  46 W20G25    30.00R
ROMEOVILLE*    FAIR      44  27  52 W22       30.00R
NORTHERLY ISL    N/A     44  20  38 SW15        N/A
$$

LMZ740>746-252300-
SOUTHERN LAKE MICHIGAN

STATION/POSITION SKY/WX   TEMP    WIND        PRES    VSBY  WAVE
                          AIR SEA DIR/SP/G                  HT/PER
                          (F)     (DEG/KT/KT) (MB)    (MI)  (FT/S)
HARRISON CRIB              44     240/ 23/ 30   N/A
BURNHAM HARBOR             44     230/ 11/ 20   N/A
CALUMET HARBOR             44     230/ 13/ 20 1014.5R
BURNS HARBOR               42     240/ 18/ 25 1016.3R
MICHIGAN CITY              40     230/ 22/ 24   N/A
$$

ILZ025>027-034>036-040-047-049-050-058-095>099-252300-
WEST-CENTRAL ILLINOIS

CITY           SKY/WX    TMP DP  RH WIND       PRES   REMARKS
QUINCY         SUNNY     48  21  34 W13       30.07R
GALESBURG*     FAIR      46  28  48 SW15G21   30.04R
MACOMB*        SUNNY    N/A N/A N/A SW18      30.07R
JACKSONVILLE*  SUNNY     47  26  43 SW12G18   30.09R
PITTSFIELD*    SUNNY     49  27  41 SW10G16   30.09S
$$

ILZ028>032-037-038-041>044-048-051>054-059>061-252300-
CENTRAL ILLINOIS

CITY           SKY/WX    TMP DP  RH WIND       PRES   REMARKS
PONTIAC        FAIR      46  26  46 SW17G23   30.03S
BLOOMINGTON    FAIR      45  23  42 SW21      30.05R
DECATUR        FAIR      47  26  44 SW16G22   30.09R
PEORIA         FAIR      47  20  34 W16G26    30.05R
LACON*         FAIR      46  22  37 W13       30.03R
LINCOLN*       FAIR      48  27  43 SW6G16    30.08R
SPRINGFIELD    FAIR      49  26  41 W13G22    30.10R
TAYLORVILLE    FAIR      47  27  46 SW14      30.10S
$$

ILZ033-039-045-046-055>057-062-063-252300-
EAST-CENTRAL ILLINOIS

CITY           SKY/WX    TMP DP  RH WIND       PRES   REMARKS
CHAMPAIGN      FAIR      46  31  55 SW16      30.08R
DANVILLE*      FAIR      44  32  63 SW14G20   30.05R
RANTOUL*       FAIR      46  32  56 W16       30.08R
MATTOON        FAIR      47  29  49 W12       30.09S
PARIS*         FAIR      47  31  55 W14       30.09S
$$

ILZ079-100>102-252300-
SOUTHWEST ILLINOIS

CITY           SKY/WX    TMP DP  RH WIND       PRES   REMARKS
ALTON          MOSUNNY   50  27  40 W12G18    30.11S
BELLEVILLE     FAIR      52  25  35 SW5       30.10R
CAHOKIA*       FAIR      53  23  31 NW9       30.10S
SPARTA*        FAIR      51  31  47 W5        30.12R
$$

ILZ064>066-069>071-074>076-080>082-084>086-088>090-092>094-252300-
SOUTH-CENTRAL ILLINOIS

CITY           SKY/WX    TMP DP  RH WIND       PRES   REMARKS
CARBONDALE     FAIR      51  30  44 SW5       30.12R
CAIRO*         FAIR      48  34  57 S3        30.13S
EFFINGHAM*     FAIR      49  31  49 W13       30.11S
MARION         PTSUNNY   50  23  34 W6        30.14R
MT. VERNON     FAIR      51  28  41 SW8       30.12R
CENTRALIA*     FAIR      50  32  50 W8        30.11R
SALEM*         FAIR      50  32  49 NW8       30.11R
METROPOLIS*    FAIR      50  32  50 NW3       30.14R
$$

ILZ067-068-072-073-078-083-087-091-252300-
SOUTHEAST ILLINOIS

CITY           SKY/WX    TMP DP  RH WIND       PRES   REMARKS
LAWRENCEVILLE  FAIR      51  33  50 W9        30.10S
FLORA*         FAIR      51  32  48 SW8       30.11R
FAIRFIELD*     FAIR      50  31  47 MISG      30.11R
HARRISBURG*    FAIR      51  29  43 SW3       30.14R
ROBINSON*      FAIR      47  34  60 SW13      30.11R
CARMI*         FAIR      49  33  52 W7        30.12R
$$

ABBREVIATIONS USED IN REMARKS
   TC - TEMPERATURE IN CELSIUS
  WCI - WIND CHILL INDEX
   HX - HEAT INDEX
  VSB - VISIBILITY
$$





USA.gov is the U.S. government's official web portal to all federal, state and local government web resources and services.